Voltar ao catálogo

GLOBALSTAR M044

AtivoComunicaçõesLEO
NORAD 25678·PAYLOAD·🇺🇸 United States

Lançado Apr 15, 1999 de Baikonur Cosmodrome

Loading…

Próximas Passagens (próximas 24 horas)

TLE

AtualizadoSource: Space-Track

Época: Sep 14, 2026, 10:32 UTC

1 25678U 99019C   26257.43898823 -.00000075  00000-0  12508-3 0  9995
2 25678  51.9949 261.0569 0005953 192.5506 333.8538 11.90266756225416

Acompanhe GLOBALSTAR M044 em tempo real com AllMySat

Download on the App Store